Location: McMath-Hulbert Observatory
(42.6964°N, 83.3187°W)
Time: 19:29:27
(UTC-04:00)

Daily predictions for brighter satellites

Satellite Brightness Start Highest point End
(mag) Time Altitude Azimuth Time Altitude Azimuth Time Altitude Azimuth
Spot 2 Rocket 3.8 20:34:46 10° S 20:39:51 74° WSW 20:44:56 10° NNW
Iridium 4 Rocket 4.1 20:35:46 10° NNE 20:40:10 30° E 20:44:11 10° SE
Cosmos 1346 Rocket 2.9 20:39:11 10° NNW 20:43:09 83° W 20:47:09 10° S
Cosmos 1544 Rocket 3.9 20:39:01 10° SSW 20:43:24 74° W 20:47:51 10° N
Cosmos 1934 Rocket 4.0 20:39:12 10° S 20:45:21 88° E 20:51:39 10° N
Cosmos 2208 Rocket 4.4 20:42:00 10° SSW 20:47:20 75° WNW 20:52:46 10° NNE
Lacrosse 5 2.2 20:43:49 10° NW 20:48:48 55° NE 20:53:46 10° ESE
Cosmos 1937 Rocket 4.3 20:45:02 10° N 20:49:51 34° ENE 20:54:40 10° SE
Envisat 4.4 20:46:54 10° ESE 20:50:36 21° ENE 20:54:18 10° NNE
Cosmos 2298 Rocket 4.2 20:48:09 10° NNW 20:53:24 55° ENE 20:58:36 10° SE
Resurs 01 Rocket 2.6 20:49:40 10° S 20:53:59 51° W 20:58:20 10° NNW
Cosmos 1743 4.0 20:59:43 10° SE 21:02:43 22° E 21:05:45 10° NE
Cosmos 1697 Rocket 2.9 20:57:30 10° S 21:02:55 50° ESE 21:08:22 10° NE
Cosmos 1066 Rocket 4.5 21:01:17 10° N 21:06:50 51° ENE 21:12:27 10° SSE
ERS-1 Rocket 3.5 21:08:33 12° SE 21:12:53 40° ENE 21:17:34 10° N
SL-16 R/B 3.8 21:16:08 13° E 21:16:08 13° E 21:18:13 10° ENE
RESURS DK-1 2.5 21:11:45 10° NNW 21:15:50 56° ENE 21:18:51 17° SE
Cosmos 2150 Rocket 3.9 21:13:34 10° NNW 21:18:45 79° ENE 21:23:51 10° SSE
CZ-4 DEB 3.2 21:19:01 21° SE 21:20:40 40° ENE 21:23:38 10° N
Cosmos 1825 Rocket 4.1 21:20:14 10° N 21:24:24 40° ENE 21:26:56 20° SE
Cosmos 1763 Rocket 4.0 21:20:15 10° SSE 21:24:51 35° ESE 21:29:27 10° NE
OAO 2 Rocket 4.2 21:21:02 10° WSW 21:25:32 34° S 21:28:13 20° SE
USA 186 2.2 21:23:26 10° S 21:26:24 54° W 21:29:10 10° NNW
ALOS 3.1 21:22:10 10° S 21:26:43 52° W 21:31:18 10° NNW
Cosmos 1980 Rocket 2.4 21:21:30 10° S 21:26:54 48° ESE 21:32:23 10° NE
H-2A R/B 3.6 21:26:10 10° S 21:29:57 51° W 21:33:50 10° NNW
Cosmos 1898 Rocket 3.7 21:26:38 10° NNW 21:31:57 76° WSW 21:37:06 10° SSE
Cosmos 2173 Rocket 4.1 21:25:46 10° S 21:31:59 58° E 21:38:10 10° NNE
Cosmos 1953 Rocket 4.1 21:31:50 10° N 21:36:02 39° ENE 21:37:48 27° SE
Cosmos 1842 4.4 21:33:18 10° NNE 21:36:33 25° ENE 21:36:55 24° E
H-2A R/B 2.7 21:37:53 28° ESE 21:39:08 34° ENE 21:42:55 10° N
Cosmos 2084 4.5 21:35:23 10° NW 21:39:14 40° WSW 21:42:28 15° S
Cosmos 1656 4.3 21:36:50 10° SW 21:42:22 59° WNW 21:47:51 10° NNE
Cosmos 468 Rocket 4.2 21:38:55 10° SSW 21:44:01 73° WNW 21:49:10 10° NNE
Cosmos 1666 3.7 21:45:23 28° ENE 21:45:23 28° ENE 21:48:15 10° NNE
Cosmos 1975 4.5 21:43:35 10° SW 21:47:24 37° WNW 21:51:14 10° N
CZ-3C R/B 4.4 21:11:01 10° W 21:47:45 27° SW 21:55:35 12° SSE
Cosmos 2100 Rocket 3.9 21:42:37 10° S 21:48:54 85° E 21:55:09 10° N
Cosmos 841 Rocket 3.6 21:44:03 10° S 21:49:08 53° ESE 21:54:12 10° NNE
Tiangong 1 1.5 21:47:03 10° W 21:50:02 44° SSW 21:50:14 43° S
Cosmos 2263 Rocket 3.6 21:46:52 10° N 21:51:08 22° NE 21:52:51 19° ENE
YAOGAN 11 4.2 21:48:04 18° S 21:51:24 78° WSW 21:55:51 10° NNW
Lacrosse 5 rocket 3.8 21:50:12 10° W 21:51:27 11° WSW 21:52:41 10° SW
YAOGAN 6 3.7 21:53:36 29° ENE 21:53:36 29° ENE 21:56:42 10° N
Cosmos 1758 Rocket 3.7 21:50:15 10° N 21:54:30 52° ENE 21:55:33 41° SE
Cosmos 1500 4.4 21:52:31 10° SSW 21:56:06 42° WNW 21:59:44 10° N
Cosmos 1814 Rocket 4.4 21:51:31 10° SSW 21:56:50 68° WNW 22:02:08 10° NNE
ASTEX 1 3.7 21:52:51 10° NNE 21:57:40 45° E 21:58:58 37° SE
Tsikada Rocket 4.4 21:53:50 10° N 22:00:01 47° ENE 22:02:25 33° SE
Cosmos 2322 Rocket 2.7 22:00:47 35° ESE 22:01:06 35° ESE 22:06:10 10° NE
Cosmos 2061 Rocket 4.0 21:55:58 10° S 22:02:16 85° W 22:08:33 10° N
Cosmos 1340 2.6 21:59:02 10° NNW 22:02:51 83° W 22:03:55 46° S
deb Chang Zheng 4 3.6 22:00:01 10° NNE 22:04:25 59° ESE 22:05:36 43° SSE
Meteor 1-15 Rocket 4.5 22:08:02 35° SSE 22:10:08 52° E 22:15:48 10° NNE
Cosmos 2297 Rocket 4.4 22:07:09 10° NW 22:11:19 21° W 22:15:29 10° SSW
Meteor 2-9 Rocket 4.1 22:12:18 36° SSE 22:14:25 62° E 22:19:45 10° NNE
MetOp-A 4.1 22:12:56 43° SE 22:14:35 67° ENE 22:19:55 10° N
Cosmos 1459 Rocket 4.3 22:09:12 10° SSW 22:15:11 65° W 22:21:17 10° N
Cosmos 2360 4.1 22:12:18 10° SSW 22:18:01 88° ESE 22:23:48 10° NNE
Meteor 1-21 4.4 22:13:03 10° NNW 22:18:50 72° W 22:22:11 26° S
Cosmos 1725 Rocket 3.9 22:18:10 33° SSE 22:21:04 68° E 22:27:17 10° NNE
Cosmos 2227 4.4 22:16:56 10° NNW 22:22:39 69° WSW 22:24:54 37° S
Cosmos 2058 Rocket 3.0 22:22:24 58° S 22:23:16 85° E 22:27:48 10° N
Cosmos 1606 Rocket 4.1 22:22:36 20° SSW 22:25:31 57° W 22:29:55 10° N
Cosmos 1939 Rocket 4.0 22:24:09 27° SSW 22:25:51 41° W 22:29:50 10° NNW
Cosmos 405 Rocket 4.2 22:25:12 10° N 22:27:15 26° NNE 22:27:15 26° NNE
Envisat 3.6 22:26:38 27° SSW 22:29:13 52° W 22:34:12 10° NNW
Lacrosse 5 3.3 22:27:14 10° WNW 22:31:31 28° SW 22:32:58 24° SSW
BREEZE-M DEB (TANK) 4.3 22:31:03 10° WNW 22:35:20 86° SSW 22:39:46 38° SE
BREEZE-M DEB (TANK) 2.7 22:33:30 10° WNW 22:35:26 53° W 22:35:26 53° W
SPOT 5 3.1 22:38:12 51° SSW 22:39:14 66° WSW 22:44:00 10° NNW
CZ-4B R/B 4.2 22:36:00 10° NNE 22:39:05 36° NE 22:39:05 36° NE
Cosmos 2233 Rocket 3.9 22:43:02 60° ESE 22:43:36 63° E 22:49:46 10° NNE
H-2A R/B 2.7 22:56:29 42° NE 22:56:29 42° NE 23:00:17 10° N
ARGOS 3.0 22:57:44 83° SSW 22:57:53 85° WSW 23:03:19 10° NNW
Terra 3.0 22:59:15 33° NNE 22:59:15 33° NNE 23:02:25 10° N
SL-16 R/B 2.1 22:57:52 63° SW 22:58:50 84° WNW 23:04:33 10° NNE
NOAA 11 4.1 22:58:50 79° SSW 22:59:06 82° WSW 23:04:36 10° NNW
Cosmos 1844 Rocket 4.4 22:58:37 10° N 23:02:32 19° NE 23:02:32 19° NE
Cosmos 1980 Rocket 4.1 23:06:20 10° WSW 23:11:09 28° NW 23:16:01 10° N
Cosmos 2360 Rocket 3.7 23:14:22 24° NE 23:14:22 24° NE 23:16:42 10° NE
BREEZE-M DEB (TANK) 4.3 22:40:51 10° WNW 23:12:37 87° NNE 23:14:37 57° ESE
SPOT 1/Viking Rocket 4.0 23:15:02 54° W 23:15:02 54° W 23:20:06 10° NNW
H-2A R/B 4.1 23:15:02 20° W 23:15:16 20° W 23:18:19 10° NW
USA 215 3.4 23:21:34 58° ENE 23:22:19 62° NE 23:28:46 10° NW
BREEZE-M DEB (TANK) 3.6 23:20:13 10° W 23:27:44 56° WNW 23:27:44 56° WNW
Cosmos 1464 Rocket 4.4 23:32:35 55° NE 23:32:35 55° NE 23:37:38 10° NNE
BREEZE-M DEB (TANK) 3.7 23:16:40 10° WNW 23:31:51 79° SW 23:31:51 79° SW
Cosmos 2263 Rocket 2.7 23:30:01 10° NNW 23:34:33 53° WNW 23:34:33 53° WNW
Cosmos 2322 Rocket 3.6 23:42:28 23° WSW 23:45:06 35° WNW 23:50:15 10° N
